[Date Prev][Date Next][Thread Prev][Thread Next] - [Date Index][Thread Index][Author Index]
2 Line ISS Keps 9-17
- Subject: [sarex] 2 Line ISS Keps 9-17
- From: "Dave Larsen PhD" <doc@xxxxxxxxxxx>
- Date: Fri, 17 Sep 2004 02:38:40 -0700
ISS
1 25544U 98067A 04261.15548611 .00023193 00000-0 19491-3 0 7065
2 25544 51.6346 216.3125 0005329 156.9333 33.2601 15.69766469332761
----
Via the sarex mailing list at AMSAT.ORG courtesy of AMSAT-NA.
To unsubscribe, send "unsubscribe sarex" to Majordomo@amsat.org
AMSAT Home